Regional Weather Roundup
Issued by NWS

Home | Current Version | Previous Version | Text Only | Print | Product List | Glossary On
Versions: 1 2 3 4 5 6 7 8 9 10 11 12 13 14 15 16 17 18 19 20 21 22 23 24 25 26 27 28
000
ASUS45 KCYS 280410
RWRWY

WYOMING REGIONAL WEATHER ROUNDUP
NATIONAL WEATHER SERVICE CHEYENNE WY
900 PM MST MON FEB 27 2017

NOTE:  "FAIR" INDICATES FEW OR NO CLOUDS BELOW 12,000 FEET
WITH NO SIGNIFICANT WEATHER AND/OR OBSTRUCTIONS TO VISIBILITY.

WYZ001-280500-
YELLOWSTONE NATIONAL PARK

CITY           SKY/WX    TMP DP  RH WIND       PRES   REMARKS
LK YELLOWSTONE   N/A      7   3  84 VRB5      29.59R WCI  -2
W YELLOWSTONE  NOT AVBL

$$
WYZ002>013-054>058-071-098>099-280500-
NORTHERN WYOMING

CITY           SKY/WX    TMP DP  RH WIND       PRES   REMARKS
JACKSON        PTCLDY    16   9  73 S17       29.67R WCI   0
CODY           FAIR      26  14  60 VRB6      29.59R WCI  19
GREYBULL       CLOUDY    32  23  69 N5        29.56R WCI  27
WORLAND        FAIR      29  20  69 W8        29.58R WCI  21
SHERIDAN       MOCLDY    23  17  78 SE8       29.61S WCI  14
BUFFALO        FAIR      24  12  60 NW6       29.57S WCI  17
GILLETTE       FAIR      23  18  81 CALM      29.59S
HULETT         FAIR      30  19  64 SE7       29.62R WCI  23
NEWCASTLE      FAIR      27  19  74 E6        29.65S WCI  20

$$
WYZ014>020-022>026-101>103-280500-
CENTRAL WYOMING

CITY           SKY/WX    TMP DP  RH WIND       PRES   REMARKS
BIG PINEY      FAIR      -3  -8  79 NW12      29.70R WCI -21
PINEDALE       FAIR       1  -4  78 W7        29.69S WCI -11
DUBOIS         FAIR      12   1  62 W10       29.58R WCI  -1
LANDER         FAIR      23  -2  33 W13       29.64R WCI  11
RIVERTON       FAIR      21   4  47 W17       29.63R WCI   7
CASPER         CLOUDY    28  19  69 SW25      29.62R WCI  13
DOUGLAS        CLOUDY    29  18  63 SW16      29.65R WCI  17

$$
WYZ021-027>030-104>119-280500-
SOUTHERN WYOMING

CITY           SKY/WX    TMP DP  RH WIND       PRES   REMARKS
EVANSTON       MOCLDY    13   9  84 W9        29.72F WCI   1
FORT BRIDGER   CLOUDY    15  14  96 W9        29.75S WCI   3
ROCK SPRINGS   MOCLDY    15  10  80 W14       29.73R WCI   0
DIXON          LGT SNOW  22  20  93 CALM      29.78S
RAWLINS        CLOUDY    21  13  71 W20       29.68S WCI   6
SARATOGA       CLOUDY    19  19 100 W8        29.73R WCI   9
LARAMIE        LGT SNOW  20  18  92 S3        29.66R FOG
CHEYENNE       CLOUDY    27  17  66 NW15      29.66R WCI  15
TORRINGTON     CLOUDY    29  26  89 CALM      29.67R
PINE BLUFFS    FAIR      25  23  93 NW8       29.68R WCI  16

$$




USA.gov is the U.S. government's official web portal to all federal, state and local government web resources and services.